FW4235 Weather Reports


time (UTC)temp
C
wind
direction
speed
KPH
gust
KPH
rain 1hr
cm
rain 24hr
cm
rain mn
cm
humidity
%
barometer
mb
20260506181007 18 245 0.0 0.0 0.00 0.00 0.00 47 1014.2
20260506180507 19 244 0.0 0.0 0.00 0.00 0.00 48 1014.1
20260506180006 19 242 0.0 0.0 0.00 0.00 0.00 47 1014.2
20260506175507 19 242 0.0 0.0 0.00 0.00 0.00 46 1014.1
20260506175006 19 241 0.0 0.0 0.00 0.00 0.00 44 1014.2
20260506174507 20 241 0.0 0.0 0.00 0.00 0.00 43 1014.1
20260506174007 20 241 0.0 0.0 0.00 0.00 0.00 43 1014.0
20260506173507 20 241 0.0 0.0 0.00 0.00 0.00 43 1013.9
20260506173006 20 241 0.0 0.0 0.00 0.00 0.00 43 1013.9
20260506172507 20 241 0.0 0.0 0.00 0.00 0.00 42 1013.9
20260506172007 20 256 0.0 0.0 0.00 0.00 0.00 42 1013.8
20260506171506 20 240 0.0 0.0 0.00 0.00 0.00 42 1013.8
20260506171007 20 232 0.0 0.0 0.00 0.00 0.00 42 1013.8
20260506170506 20 232 0.0 0.0 0.00 0.00 0.00 42 1013.7
20260506170006 20 232 0.0 0.0 0.00 0.00 0.00 42 1013.8
20260506165506 21 232 0.0 0.0 0.00 0.00 0.00 41 1013.7
20260506164007 21 223 0.0 0.0 0.00 0.00 0.00 40 1013.7
20260506163507 21 238 0.0 0.0 0.00 0.00 0.00 40 1013.7
20260506163006 21 223 0.0 0.0 0.00 0.00 0.00 39 1013.7
20260506162507 21 227 0.0 0.0 0.00 0.00 0.00 39 1013.7
20260506161007 21 238 0.0 0.0 0.00 0.00 0.00 38 1013.6
20260506160506 21 194 0.0 0.0 0.00 0.00 0.00 39 1013.6
20260506155506 21 190 0.0 0.0 0.00 0.00 0.00 39 1013.6
20260506155006 21 217 0.0 0.0 0.00 0.00 0.00 39 1013.6
20260506154506 22 167 0.0 0.0 0.00 0.00 0.00 39 1013.6
20260506154006 22 212 0.0 0.0 0.00 0.00 0.00 39 1013.6
20260506153007 22 200 0.0 0.0 0.00 0.00 0.00 39 1013.7
20260506152507 22 191 0.0 0.0 0.00 0.00 0.00 39 1013.8
20260506152007 22 198 0.0 0.0 0.00 0.00 0.00 38 1013.8
20260506151506 22 199 0.0 0.0 0.00 0.00 0.00 38 1013.7
20260506151007 22 166 0.0 0.0 0.00 0.00 0.00 37 1013.7
20260506150007 23 205 0.0 0.0 0.00 0.00 0.00 37 1013.7
20260506145006 23 172 0.0 0.0 0.00 0.00 0.00 38 1013.8
20260506144506 23 192 0.0 0.0 0.00 0.00 0.00 38 1013.8
20260506144007 23 174 0.0 0.0 0.00 0.00 0.00 39 1013.7
20260506142507 23 178 0.0 0.0 0.00 0.00 0.00 41 1013.7
20260506142006 23 185 0.0 0.0 0.00 0.00 0.00 41 1013.7
20260506141006 23 200 0.0 0.0 0.00 0.00 0.00 39 1013.7
20260506140506 23 169 0.0 0.0 0.00 0.00 0.00 40 1013.7
20260506140006 23 176 0.0 0.0 0.00 0.00 0.00 39 1013.7
20260506135006 23 185 0.0 0.0 0.00 0.00 0.00 39 1013.7
20260506134006 24 165 0.0 0.0 0.00 0.00 0.00 38 1013.8
20260506133507 24 165 0.0 0.0 0.00 0.00 0.00 38 1013.8
20260506133006 24 186 0.0 0.0 0.00 0.00 0.00 38 1013.8
20260506132507 24 175 0.0 0.0 0.00 0.00 0.00 37 1013.8
20260506132007 24 173 0.0 0.0 0.00 0.00 0.00 38 1013.8
20260506131506 24 194 0.0 0.0 0.00 0.00 0.00 38 1013.8
20260506130507 24 201 0.0 0.0 0.00 0.00 0.00 38 1013.8
20260506130006 23 181 0.0 0.0 0.00 0.00 0.00 38 1013.8
20260506125506 23 176 0.0 0.0 0.00 0.00 0.00 39 1013.8
20260506123506 25 186 0.0 0.0 0.00 0.00 0.00 39 1013.9
20260506123007 25 178 0.0 0.0 0.00 0.00 0.00 40 1013.9
20260506122506 25 182 0.0 0.0 0.00 0.00 0.00 39 1013.9
20260506122006 25 199 0.0 0.0 0.00 0.00 0.00 39 1013.9
20260506121506 25 214 0.0 0.0 0.00 0.00 0.00 35 1013.9
20260506120506 25 219 0.0 0.0 0.00 0.00 0.00 36 1014.1
20260506115006 25 226 0.0 0.0 0.00 0.00 0.00 35 1014.1
20260506114507 25 243 0.0 0.0 0.00 0.00 0.00 35 1014.2
20260506114007 25 247 0.0 0.0 0.00 0.00 0.00 35 1014.2
20260506113506 25 255 0.0 0.0 0.00 0.00 0.00 35 1014.2
20260506113006 25 256 0.0 0.0 0.00 0.00 0.00 34 1014.1
20260506112506 25 245 0.0 0.0 0.00 0.00 0.00 34 1014.2
20260506112007 25 233 0.0 0.0 0.00 0.00 0.00 34 1014.2
20260506111507 25 229 0.0 0.0 0.00 0.00 0.00 34 1014.2
20260506111008 25 310 0.0 0.0 0.00 0.00 0.00 33 1014.2
20260506110508 25 286 0.0 0.0 0.00 0.00 0.00 34 1014.2
20260506110007 25 281 0.0 0.0 0.00 0.00 0.00 33 1014.3
20260506105507 25 260 0.0 0.0 0.00 0.00 0.00 35 1014.2
20260506104508 25 259 0.0 0.0 0.00 0.00 0.00 35 1014.2
20260506104008 25 264 0.0 0.0 0.00 0.00 0.00 34 1014.3
20260506103507 25 249 0.0 0.0 0.00 0.00 0.00 33 1014.3
20260506103008 25 249 0.0 0.0 0.00 0.00 0.00 34 1014.3
20260506102508 25 263 0.0 0.0 0.00 0.00 0.00 34 1014.3
20260506102008 25 262 0.0 0.0 0.00 0.00 0.00 34 1014.3
20260506101507 25 282 0.0 0.0 0.00 0.00 0.00 34 1014.3
20260506101008 24 271 0.0 0.0 0.00 0.00 0.00 34 1014.4
20260506100507 25 252 0.0 0.0 0.00 0.00 0.00 35 1014.4
20260506094507 24 270 0.0 0.0 0.00 0.00 0.00 34 1014.5
20260506094007 24 270 0.0 0.0 0.00 0.00 0.00 35 1014.5
20260506093508 24 243 0.0 0.0 0.00 0.00 0.00 35 1014.5
20260506093008 24 252 0.0 0.0 0.00 0.00 0.00 35 1014.5
20260506092508 24 221 0.0 0.0 0.00 0.00 0.00 36 1014.6
20260506090508 23 251 0.0 0.0 0.00 0.00 0.00 38 1014.6
20260506090007 23 223 0.0 0.0 0.00 0.00 0.00 39 1014.6
20260506085507 23 258 0.0 0.0 0.00 0.00 0.00 38 1014.6
20260506085007 23 226 0.0 0.0 0.00 0.00 0.00 40 1014.6
20260506084507 23 244 0.0 0.0 0.00 0.00 0.00 39 1014.5
20260506084008 23 215 0.0 0.0 0.00 0.00 0.00 40 1014.5
20260506083007 23 232 0.0 0.0 0.00 0.00 0.00 42 1014.6
20260506082507 23 208 0.0 0.0 0.00 0.00 0.00 42 1014.6
20260506082009 23 221 0.0 0.0 0.00 0.00 0.00 42 1014.5
20260506081508 23 238 0.0 0.0 0.00 0.00 0.00 42 1014.6
20260506081008 23 207 0.0 0.0 0.00 0.00 0.00 43 1014.6
20260506080507 23 213 0.0 0.0 0.00 0.00 0.00 43 1014.5
20260506073008 22 142 0.0 0.0 0.00 0.00 0.00 40 1014.3
20260506071507 21 104 0.0 0.0 0.00 0.00 0.00 43 1014.2
20260506071007 21 152 0.0 0.0 0.00 0.00 0.00 45 1014.2
20260506070507 21 163 0.0 0.0 0.00 0.00 0.00 47 1014.2
20260506062507 20 82 0.0 0.0 0.00 0.00 0.00 52 1014.3
20260506062007 20 119 0.0 0.0 0.00 0.00 0.00 53 1014.2
20260506061007 20 87 0.0 0.0 0.00 0.00 0.00 54 1014.2
20260506060508 19 111 0.0 0.0 0.00 0.00 0.00 54 1014.2
20260506050508 17 269 0.0 0.0 0.00 0.00 0.00 61 1014.1
20260506044507 16 269 0.0 0.0 0.00 0.00 0.00 64 1013.8
20260506044007 16 269 0.0 0.0 0.00 0.00 0.00 66 1013.8
20260506043508 15 269 0.0 0.0 0.00 0.00 0.00 65 1013.8
20260506043008 15 269 0.0 0.0 0.00 0.00 0.00 65 1013.8
20260506042507 15 269 0.0 0.0 0.00 0.00 0.00 66 1013.7
20260506042007 15 268 0.0 0.0 0.00 0.00 0.00 66 1013.7
20260506041507 15 268 0.0 0.0 0.00 0.00 0.00 66 1013.7
20260506040507 15 269 0.0 0.0 0.00 0.00 0.00 66 1013.6
20260506040008 15 269 0.0 0.0 0.00 0.00 0.00 66 1013.5
20260506035007 15 269 0.0 0.0 0.00 0.00 0.00 65 1013.5
20260506034507 15 268 0.0 0.0 0.00 0.00 0.00 65 1013.4
20260506034007 15 268 0.0 0.0 0.00 0.00 0.00 65 1013.3
20260506033507 15 268 0.0 0.0 0.00 0.00 0.00 65 1013.3
20260506033007 15 268 0.0 0.0 0.00 0.00 0.00 65 1013.3
20260506032508 15 268 0.0 0.0 0.00 0.00 0.00 65 1013.3
20260506032008 15 268 0.0 0.0 0.00 0.00 0.00 65 1013.3
20260506031508 15 268 0.0 0.0 0.00 0.00 0.00 65 1013.3
20260506031008 15 268 0.0 0.0 0.00 0.00 0.00 65 1013.3
20260506030507 15 268 0.0 0.0 0.00 0.00 0.00 65 1013.2
20260506030007 15 268 0.0 0.0 0.00 0.00 0.00 65 1013.2
20260506025508 15 268 0.0 0.0 0.00 0.00 0.00 65 1013.2
20260506025008 15 268 0.0 0.0 0.00 0.00 0.00 65 1013.2
20260506024008 14 269 0.0 0.0 0.00 0.00 0.00 66 1013.1
20260506023507 14 261 0.0 0.0 0.00 0.00 0.00 66 1013.1
20260506023008 14 261 0.0 0.0 0.00 0.00 0.00 67 1013.2
20260506022507 14 261 0.0 0.0 0.00 0.00 0.00 67 1013.2
20260506022007 14 261 0.0 0.0 0.00 0.00 0.00 67 1013.2
20260506021507 14 261 0.0 0.0 0.00 0.00 0.00 67 1013.2
20260506021007 14 261 0.0 0.0 0.00 0.00 0.00 67 1013.3
20260506020508 14 261 0.0 0.0 0.00 0.00 0.00 67 1013.3
20260506015507 14 242 0.0 0.0 0.00 0.00 0.00 66 1013.3
20260506014007 14 242 0.0 0.0 0.00 0.00 0.00 65 1013.4
20260506013507 14 242 0.0 0.0 0.00 0.00 0.00 65 1013.5
20260506013008 15 242 0.0 0.0 0.00 0.00 0.00 65 1013.5
20260506012507 15 242 0.0 0.0 0.00 0.00 0.00 65 1013.5
20260506012008 15 242 0.0 0.0 0.00 0.00 0.00 65 1013.5
20260506011507 15 242 0.0 0.0 0.00 0.00 0.00 65 1013.5
20260506011007 15 242 0.0 0.0 0.00 0.00 0.00 66 1013.4
20260506010507 15 242 0.0 0.0 0.00 0.00 0.00 66 1013.4
20260506010007 15 242 0.0 0.0 0.00 0.00 0.00 66 1013.5
20260506005507 15 242 0.0 0.0 0.00 0.00 0.00 65 1013.5
20260506005008 15 242 0.0 0.0 0.00 0.00 0.00 65 1013.5
20260506004507 15 242 0.0 0.0 0.00 0.00 0.00 65 1013.5
20260506004007 15 242 0.0 0.0 0.00 0.00 0.00 64 1013.5
20260506003508 15 242 0.0 0.0 0.00 0.00 0.00 64 1013.5
20260506002507 15 242 0.0 0.0 0.00 0.00 0.00 63 1013.5
20260506002008 16 242 0.0 0.0 0.00 0.00 0.00 62 1013.5
20260506001007 16 244 0.0 0.0 0.00 0.00 0.00 62 1013.5
20260506000508 16 245 0.0 0.0 0.00 0.00 0.00 61 1013.5
20260506000007 16 246 0.0 0.0 0.00 0.00 0.00 61 1013.5
20260505235507 16 264 0.0 0.0 0.00 0.00 0.00 61 1013.5
20260505235007 16 264 0.0 0.0 0.00 0.00 0.00 60 1013.5
20260505234507 16 233 0.0 0.0 0.00 0.00 0.00 60 1013.6
20260505234008 16 236 0.0 0.0 0.00 0.00 0.00 59 1013.6
20260505233507 16 237 0.0 0.0 0.00 0.00 0.00 59 1013.7
20260505233007 16 237 0.0 0.0 0.00 0.00 0.00 59 1013.7
20260505232507 16 233 0.0 0.0 0.00 0.00 0.00 59 1013.7
20260505232007 16 242 0.0 0.0 0.00 0.00 0.00 59 1013.7
20260505231507 16 243 0.0 0.0 0.00 0.00 0.00 58 1013.7
20260505231008 16 245 0.0 0.0 0.00 0.00 0.00 58 1013.8
20260505230507 16 252 0.0 0.0 0.00 0.00 0.00 58 1013.8
20260505230007 16 259 0.0 0.0 0.00 0.00 0.00 57 1013.8
20260505225507 16 267 0.0 0.0 0.00 0.00 0.00 57 1013.9
20260505225008 17 268 0.0 0.0 0.00 0.00 0.00 57 1013.9
20260505224507 17 279 0.0 0.0 0.00 0.00 0.00 57 1014.0
20260505224007 17 291 0.0 0.0 0.00 0.00 0.00 57 1014.0
20260505223507 17 291 0.0 0.0 0.00 0.00 0.00 57 1014.1
20260505223008 17 290 0.0 0.0 0.00 0.00 0.00 57 1014.1
20260505222508 17 290 0.0 0.0 0.00 0.00 0.00 57 1014.1
20260505222008 17 290 0.0 0.0 0.00 0.00 0.00 57 1014.1
20260505221007 17 290 0.0 0.0 0.00 0.00 0.00 57 1014.1
20260505220508 16 290 0.0 0.0 0.00 0.00 0.00 57 1014.1
20260505220007 16 290 0.0 0.0 0.00 0.00 0.00 56 1014.1
20260505215510 16 290 0.0 0.0 0.00 0.00 0.00 55 1014.1
20260505215007 16 286 0.0 0.0 0.00 0.00 0.00 56 1014.0
20260505214507 16 297 0.0 0.0 0.00 0.00 0.00 56 1014.0
20260505214007 16 336 0.0 0.0 0.00 0.00 0.00 57 1014.0
20260505213507 16 11 0.0 0.0 0.00 0.00 0.00 57 1014.0
20260505213008 16 12 0.0 0.0 0.00 0.00 0.00 57 1014.1
20260505212508 16 12 0.0 0.0 0.00 0.00 0.00 57 1014.1
20260505212008 16 12 0.0 0.0 0.00 0.00 0.00 57 1014.1
20260505211507 16 11 0.0 0.0 0.00 0.00 0.00 57 1014.2
20260505211007 16 12 0.0 0.0 0.00 0.00 0.00 56 1014.2
20260505210007 17 265 0.0 0.0 0.00 0.00 0.00 55 1014.3
20260505205507 17 265 0.0 0.0 0.00 0.00 0.00 53 1014.2
20260505205007 17 265 0.0 0.0 0.00 0.00 0.00 53 1014.2
20260505204507 17 265 0.0 0.0 0.00 0.00 0.00 52 1014.3
20260505204007 17 264 0.0 0.0 0.00 0.00 0.00 52 1014.3
20260505203508 17 290 0.0 0.0 0.00 0.00 0.00 52 1014.3
20260505203007 17 5 0.0 0.0 0.00 0.00 0.00 53 1014.2
20260505202507 17 5 0.0 0.0 0.00 0.00 0.00 53 1014.3
20260505202007 17 45 0.0 0.0 0.00 0.00 0.00 54 1014.4
20260505201507 17 45 0.0 0.0 0.00 0.00 0.00 55 1014.4
20260505201007 17 45 0.0 0.0 0.00 0.00 0.00 56 1014.4
20260505200507 17 45 0.0 0.0 0.00 0.00 0.00 56 1014.3
20260505200007 17 45 0.0 0.0 0.00 0.00 0.00 56 1014.3
20260505195507 17 45 0.0 0.0 0.00 0.00 0.00 57 1014.3
20260505195008 17 45 0.0 0.0 0.00 0.00 0.00 57 1014.3
20260505194007 17 45 0.0 0.0 0.00 0.00 0.00 57 1014.3
20260505192507 17 45 0.0 0.0 0.00 0.00 0.00 57 1014.3
20260505192007 17 46 0.0 0.0 0.00 0.00 0.00 57 1014.3
20260505191507 17 46 0.0 0.0 0.00 0.00 0.00 57 1014.3
20260505191008 17 46 0.0 0.0 0.00 0.00 0.00 56 1014.2
20260505190507 17 46 0.0 0.0 0.00 0.00 0.00 56 1014.2
20260505190007 17 46 0.0 0.0 0.00 0.00 0.00 55 1014.2
20260505185507 17 49 0.0 0.0 0.00 0.00 0.00 55 1014.1
20260505185007 18 42 0.0 0.0 0.00 0.00 0.00 54 1014.0
20260505184507 18 40 0.0 0.0 0.00 0.00 0.00 54 1013.9
20260505184007 18 40 0.0 0.0 0.00 0.00 0.00 53 1013.9
20260505183507 18 51 0.0 0.0 0.00 0.00 0.00 53 1013.9
20260505183007 18 52 0.0 0.0 0.00 0.00 0.00 52 1013.8
20260505182507 18 52 0.0 0.0 0.00 0.00 0.00 52 1013.8
20260505182008 18 52 0.0 0.0 0.00 0.00 0.00 52 1013.7
20260505181507 19 52 0.0 0.0 0.00 0.00 0.00 52 1013.7